LIJIAN-2 R/B

Last updated on Sun Apr 12 2026 00:02:09 GMT+0000 (Coordinated Universal Time)

1 68413U 26066B 26101.54261256 .09641538 -22498-5 32370-3 0 9998 2 68413 84.6612 269.1527 0231306 167.1991 193.5311 15.98167465 1862

Satellite not in orbit

LIJIAN-2 R/B